Regional Weather Roundup
Issued by NWS Huntsville, AL

Home | Current Version | Previous Version | Text Only | Print | Product List | Glossary On
Versions: 1 2 3 4 5 6 7 8 9 10 11 12 13 14 15 16 17 18 19 20 21 22 23 24 25 26 27 28 29 30 31 32 33 34 35 36 37 38 39 40 41 42 43 44 45 46 47 48 49 50
000
ASUS44 KHUN 191210
RWRHUN

WEATHER ROUNDUP FOR THE TENNESSEE VALLEY
NATIONAL WEATHER SERVICE HUNTSVILLE AL
700 AM CDT SAT AUG 19 2017

ALZ001>004-191300-
NORTHWEST ALABAMA

CITY           SKY/WX    TMP DP  RH WIND       PRES   REMARKS
COURTLAND HCN    N/A     68 N/A N/A CALM        N/A
RUSSELLVILLE     N/A     64 N/A N/A MISG        N/A
SHOALS AIRPORT CLEAR     67  65  93 CALM      30.02R
6HR MIN TEMP:  66; 6HR MAX TEMP:  71;

SHOALS TVA RES   N/A     66 N/A N/A MISG        N/A
$$

ALZ005>007-016-191300-
NORTH CENTRAL ALABAMA

CITY           SKY/WX    TMP DP  RH WIND       PRES   REMARKS
CULLMAN AG STN   N/A     66 N/A N/A CALM        N/A
DECATUR AP     CLEAR     67  67 100 CALM      30.02R
6HR MIN TEMP:  63; 6HR MAX TEMP:  68;

HUNTSVILLE AP  PTCLDY    70  69  97 CALM      30.01R
6HR MIN TEMP:  67; 6HR MAX TEMP:  70;

MERIDIANVILLE  CLEAR     64  64 100 CALM      30.02R
REDSTONE ARSN  CLEAR     68  67  97 CALM      30.01R
VINEMONT AP    FAIR     N/A N/A N/A CALM      30.05R HAZE
$$

ALZ008>010-191300-
NORTHEAST ALABAMA

CITY           SKY/WX    TMP DP  RH WIND       PRES   REMARKS
ALBERTVILLE    CLEAR     66  66 100 CALM      30.02S
FORT PAYNE     CLEAR     61  59  94 CALM      30.02S
SCOTTSBORO HCN   N/A     66 N/A N/A MISG        N/A
VALLEY HEAD      N/A     61 N/A N/A MISG        N/A
$$

TNZ076-096-097-191300-
SOUTHEASTERN MIDDLE TENNESSEE

CITY           SKY/WX    TMP DP  RH WIND       PRES   REMARKS
TULLAHOMA      MOCLDY    64  64 100 CALM      30.04R VSB 1/2
WINCHESTER     CLEAR     66  64  94 CALM      30.03R
$$

...SURROUNDING SITES...

CITY           SKY/WX    TMP DP  RH WIND       PRES   REMARKS
ATLANTA        MOSUNNY   70  66  87 S5        30.02R
ANNISTON       CLEAR     69  68  96 CALM      30.02R
BIRMINGHAM     PTCLDY    71  69  93 CALM      30.03F
CHATTANOOGA    MOSUNNY   69  66  90 CALM      30.02R
DALTON         NOT AVBL
GADSDEN        PTCLDY    67  67 100 CALM      30.02S
GOLDEN TRNGL   PTCLDY    77  73  88 S7        29.94F
HALEYVILLE     FAIR      67  67 100 CALM      30.05R
JACKSON TN     PTCLDY    68  67  96 CALM      29.98R
MEMPHIS        PTCLDY    75  71  87 CALM      29.97R
NASHVILLE      PTCLDY    68  66  93 S5        30.01R
OXFORD MS      FAIR      72  72 100 CALM      30.00R
ROME           MOSUNNY   67  67 100 CALM      30.01R
SAVANNAH       CLEAR     68  66  94 S3        29.98R
SELMER         CLEAR     68  66  94 CALM      29.98R
TUPELO         CLEAR     73  70  90 CALM      29.98R
TUSCALOOSA     CLEAR     73  73 100 CALM      30.00S
$$

...GULF COAST WEATHER...

CITY           SKY/WX    TMP DP  RH WIND       PRES   REMARKS
GULFPORT       CLEAR     77  76  96 W3        29.98S
PASCAGOULA     CLEAR     74  71  91 CALM      29.98S
MOBILE         PTCLDY    74  72  93 NW3       30.00S
GULF SHORES    MOSUNNY   76  76 100 CALM      29.99R
PENSACOLA      CLEAR     77  74  90 CALM      29.99R
DESTIN         CLEAR     80  74  81 CALM      30.00R
PANAMA CITY    CLOUDY    80  76  89 CALM      29.98F
APPALACHICOLA  CLOUDY    80  77  90 W5        29.98F
$$




USA.gov is the U.S. government's official web portal to all federal, state and local government web resources and services.